• In Moldova, Republic
  • List of Countries
  • For 7 days
  • Water Temperature
  • Satellite Maps
  • Weather Map
  • Weather Widgets
  • user-avatar
    Login

    Hourly Weather Sidi Bu-l-Abbas

    Today, 21 January, Monday

    Time Temperature Precipitation Wind Pressure Humidity
    00:00 +8°C° 0 mm 6 mps 719 mmHg 85%
    01:00 +8°C° 0.2 mm 6 mps 719 mmHg 83%
    02:00 +8°C° 0.2 mm 5 mps 719 mmHg 81%
    03:00 +8°C° 0.2 mm 5 mps 719 mmHg 79%
    04:00 +7°C° 0 mm 4 mps 719 mmHg 79%
    05:00 +7°C° 0 mm 4 mps 719 mmHg 79%
    06:00 +7°C° 0 mm 4 mps 720 mmHg 79%
    07:00 +7°C° 0 mm 4 mps 720 mmHg 77%
    08:00 +7°C° 0 mm 4 mps 720 mmHg 75%
    09:00 +7°C° 0 mm 4 mps 720 mmHg 73%
    10:00 +8°C° 0.1 mm 4 mps 720 mmHg 71%
    11:00 +8°C° 0.1 mm 4 mps 720 mmHg 69%
    12:00 +8°C° 0.1 mm 4 mps 721 mmHg 67%
    13:00 +8°C° 0.2 mm 4 mps 720 mmHg 67%
    14:00 +9°C° 0.2 mm 3 mps 720 mmHg 68%
    15:00 +9°C° 0.2 mm 3 mps 720 mmHg 68%
    16:00 +8°C° 0.1 mm 3 mps 720 mmHg 71%
    17:00 +8°C° 0.1 mm 2 mps 720 mmHg 75%
    18:00 +7°C° 0.1 mm 2 mps 720 mmHg 78%
    19:00 +7°C° 0 mm 2 mps 721 mmHg 79%
    20:00 +7°C° 0 mm 2 mps 721 mmHg 80%
    21:00 +6°C° 0 mm 2 mps 721 mmHg 82%
    22:00 +6°C° 0.1 mm 2 mps 721 mmHg 80%
    23:00 +6°C° 0.1 mm 2 mps 721 mmHg 78%

    Tomorrow, 22 January, Tuesday

    Time Temperature Precipitation Wind Pressure Humidity
    00:00 +6°C° 0.1 mm 2 mps 721 mmHg 76%
    01:00 +6°C° 0.1 mm 2 mps 721 mmHg 76%
    02:00 +6°C° 0.1 mm 2 mps 721 mmHg 76%
    03:00 +4°C° 0.1 mm 3 mps 721 mmHg 75%
    04:00 +4°C° 0 mm 3 mps 721 mmHg 75%
    05:00 +4°C° 0 mm 3 mps 721 mmHg 75%
    06:00 +3°C° 0 mm 3 mps 721 mmHg 75%
    07:00 +4°C° 0 mm 4 mps 721 mmHg 74%
    08:00 +5°C° 0 mm 5 mps 721 mmHg 74%
    09:00 +6°C° 0 mm 5 mps 722 mmHg 73%
    10:00 +7°C° 0.1 mm 6 mps 721 mmHg 71%
    11:00 +7°C° 0.1 mm 8 mps 721 mmHg 69%
    12:00 +7°C° 0.1 mm 9 mps 721 mmHg 68%
    13:00 +7°C° 0.1 mm 10 mps 720 mmHg 66%
    14:00 +8°C° 0.1 mm 10 mps 719 mmHg 64%
    15:00 +8°C° 0.1 mm 11 mps 718 mmHg 62%
    16:00 +7°C° 0.1 mm 11 mps 718 mmHg 67%
    17:00 +7°C° 0.1 mm 11 mps 718 mmHg 72%
    18:00 +6°C° 0.1 mm 10 mps 718 mmHg 78%
    19:00 +6°C° 0.3 mm 11 mps 718 mmHg 80%
    20:00 +5°C° 0.3 mm 12 mps 718 mmHg 81%
    21:00 +5°C° 0.3 mm 12 mps 718 mmHg 83%
    22:00 +5°C° 2.1 mm 12 mps 717 mmHg 86%
    23:00 +5°C° 2.1 mm 12 mps 717 mmHg 89%

    Day after tomorrow, 23 January, Wednesday

    Time Temperature Precipitation Wind Pressure Humidity
    00:00 +5°C° 2.1 mm 12 mps 717 mmHg 93%
    01:00 +5°C° 2.7 mm 12 mps 716 mmHg 91%
    02:00 +5°C° 2.7 mm 12 mps 716 mmHg 90%
    03:00 +7°C° 2.7 mm 12 mps 716 mmHg 89%
    04:00 +6°C° 2 mm 11 mps 716 mmHg 88%
    05:00 +6°C° 2 mm 9 mps 716 mmHg 87%
    06:00 +6°C° 2 mm 8 mps 716 mmHg 85%
    07:00 +7°C° 0.5 mm 8 mps 717 mmHg 84%
    08:00 +7°C° 0.5 mm 8 mps 717 mmHg 84%
    09:00 +7°C° 0.5 mm 8 mps 717 mmHg 83%
    10:00 +7°C° 0.1 mm 9 mps 717 mmHg 81%
    11:00 +7°C° 0.1 mm 11 mps 717 mmHg 80%
    12:00 +8°C° 0.1 mm 12 mps 716 mmHg 79%
    13:00 +8°C° 0 mm 13 mps 716 mmHg 74%
    14:00 +9°C° 0 mm 14 mps 715 mmHg 70%
    15:00 +9°C° 0 mm 15 mps 715 mmHg 65%
    16:00 +8°C° 0 mm 14 mps 715 mmHg 70%
    17:00 +8°C° 0 mm 14 mps 715 mmHg 75%
    18:00 +6°C° 0 mm 14 mps 715 mmHg 80%
    19:00 +7°C° 0.1 mm 13 mps 716 mmHg 81%
    20:00 +7°C° 0.1 mm 13 mps 716 mmHg 83%
    21:00 +8°C° 0.1 mm 13 mps 716 mmHg 84%
    22:00 +8°C° 0.2 mm 13 mps 716 mmHg 85%
    23:00 +8°C° 0.2 mm 12 mps 716 mmHg 86%

    24 January, Thursday

    Time Temperature Precipitation Wind Pressure Humidity
    00:00 +8°C° 0.2 mm 12 mps 716 mmHg 87%
    01:00 +8°C° 0.3 mm 12 mps 715 mmHg 87%
    02:00 +8°C° 0.3 mm 12 mps 715 mmHg 87%
    03:00 +8°C° 0.3 mm 11 mps 714 mmHg 88%
    04:00 +7°C° 0.3 mm 12 mps 714 mmHg 88%
    05:00 +7°C° 0.3 mm 12 mps 714 mmHg 89%
    06:00 +7°C° 0.3 mm 12 mps 714 mmHg 90%
    07:00 +8°C° 0.6 mm 11 mps 714 mmHg 87%
    08:00 +8°C° 0.6 mm 11 mps 715 mmHg 84%
    09:00 +8°C° 0.6 mm 10 mps 715 mmHg 81%
    10:00 +9°C° 0.6 mm 10 mps 715 mmHg 77%
    11:00 +9°C° 0.6 mm 10 mps 715 mmHg 72%
    12:00 +11°C° 0.6 mm 10 mps 715 mmHg 68%
    13:00 +9°C° 0.5 mm 10 mps 715 mmHg 69%
    14:00 +9°C° 0.5 mm 10 mps 714 mmHg 70%
    15:00 +8°C° 0.5 mm 9 mps 714 mmHg 72%
    16:00 +7°C° 0.4 mm 9 mps 714 mmHg 73%
    17:00 +7°C° 0.4 mm 8 mps 715 mmHg 75%
    18:00 +6°C° 0.4 mm 7 mps 715 mmHg 77%
    19:00 +5°C° 0.2 mm 6 mps 716 mmHg 72%
    20:00 +6°C° 0.2 mm 4 mps 717 mmHg 67%
    21:00 +7°C° 0.2 mm 3 mps 718 mmHg 62%
    22:00 +5°C° 0 mm 3 mps 718 mmHg 62%
    23:00 +6°C° 0 mm 2 mps 718 mmHg 62%

    25 January, Friday

    Time Temperature Precipitation Wind Pressure Humidity
    00:00 +6°C° 0 mm 1 mps 718 mmHg 63%
    01:00 +5°C° 0 mm 1 mps 718 mmHg 63%
    02:00 +5°C° 0 mm 1 mps 718 mmHg 63%
    03:00 +5°C° 0 mm 1 mps 719 mmHg 64%
    04:00 +4°C° 0 mm 1 mps 719 mmHg 63%
    05:00 +4°C° 0 mm 1 mps 719 mmHg 63%
    06:00 +4°C° 0 mm 1 mps 719 mmHg 62%
    07:00 +5°C° 0 mm 1 mps 720 mmHg 58%
    08:00 +6°C° 0 mm 1 mps 720 mmHg 53%
    09:00 +7°C° 0 mm 1 mps 721 mmHg 48%
    10:00 +8°C° 0 mm 1 mps 721 mmHg 46%
    11:00 +9°C° 0 mm 1 mps 722 mmHg 44%
    12:00 +10°C° 0 mm 1 mps 722 mmHg 42%
    13:00 +10°C° 0 mm 1 mps 722 mmHg 41%
    14:00 +10°C° 0 mm 1 mps 721 mmHg 39%
    15:00 +10°C° 0 mm 2 mps 721 mmHg 38%
    16:00 +9°C° 0 mm 2 mps 721 mmHg 43%
    17:00 +8°C° 0 mm 2 mps 722 mmHg 48%
    18:00 +7°C° 0 mm 2 mps 722 mmHg 53%
    19:00 +7°C° 0 mm 1 mps 722 mmHg 55%
    20:00 +6°C° 0 mm 1 mps 722 mmHg 58%
    21:00 +6°C° 0 mm 1 mps 723 mmHg 61%
    22:00 +6°C° 0 mm 1 mps 723 mmHg 59%
    23:00 +5°C° 0 mm 1 mps 723 mmHg 57%

    26 January, Saturday

    Time Temperature Precipitation Wind Pressure Humidity
    00:00 +5°C° 0 mm 1 mps 723 mmHg 55%
    01:00 +5°C° 0 mm 1 mps 722 mmHg 52%
    02:00 +5°C° 0 mm 1 mps 722 mmHg 50%
    03:00 +4°C° 0 mm 1 mps 722 mmHg 47%
    04:00 +4°C° 0 mm 1 mps 722 mmHg 44%
    05:00 +4°C° 0 mm 1 mps 722 mmHg 41%
    06:00 +4°C° 0 mm 1 mps 722 mmHg 38%
    07:00 +6°C° 0 mm 1 mps 723 mmHg 35%
    08:00 +8°C° 0 mm 1 mps 723 mmHg 32%
    09:00 +10°C° 0 mm 1 mps 724 mmHg 28%
    10:00 +11°C° 0 mm 1 mps 724 mmHg 29%
    11:00 +11°C° 0 mm 0 mps 724 mmHg 30%
    12:00 +12°C° 0 mm 0 mps 724 mmHg 30%
    13:00 +13°C° 0 mm 0 mps 723 mmHg 31%
    14:00 +14°C° 0 mm 1 mps 723 mmHg 32%
    15:00 +15°C° 0 mm 1 mps 722 mmHg 33%
    16:00 +13°C° 0 mm 1 mps 722 mmHg 41%
    17:00 +12°C° 0 mm 1 mps 721 mmHg 48%
    18:00 +9°C° 0 mm 0 mps 721 mmHg 56%
    19:00 +10°C° 0 mm 1 mps 721 mmHg 55%
    20:00 +9°C° 0 mm 1 mps 721 mmHg 54%
    21:00 +9°C° 0 mm 1 mps 721 mmHg 53%
    22:00 +9°C° 0 mm 1 mps 721 mmHg 51%
    23:00 +8°C° 0 mm 2 mps 721 mmHg 50%
    Show more